Details for AirAsia India at VIDP




Go Back


Latest METAR
Local Time

VIDP 240700Z 01008KT 3000 DU FEW040 SCT100 42/09 Q1003 NOSIG

24/05/2018, 13:17:32

Description
Results
AirAsia India Logo
Number of Pilots based at VIDP
0 Pilots Based here
Number of AirAsia India Flights Departed from VIDP
0 Flights Departed
Number of AirAsia India Flights Arrived at VIDP
0 Flights Arrived
Number of AirAsia India Schedules Departing from VIDP
18 Schedules
Number of AirAsia India Schedules Arriving at VIDP
18 Schedules
Number of AirAsia India Schedules Departing from VIDP availible today
17 Schedules Today
Number of AirAsia India Schedules Arriving at VIDP availible today
17 Schedules Today
Average Landing Rate at VIDP
-172 fpm
AirAsia India Average Landing Rate at VIDP
0 fpm
Total Fuel Purchased at VIDP by AirAsia India
0.00 kgs / 0.00 lbs

Pilots Based at VIDP


Pilot ID
Pilot Name
Pilot Rank
No. of Flights
No. of Flying Hours
There are no pilots assigned to this hub!   Will you be the first?
Content